EHI
3 1 0 0 0 0 0 0 0 0 0 0 0 0 0 0 0 0 0 0 0 0 0 0 0 0 0 0 0 0 0 0 0 0 0 0 0 1 1 1 1 3 3 2 1 0 0 0 0
2 1 0 0 0 0 0 0 0 0 0 0 0 0 0 0 0 0 0 0 0 0 0 0 0 0 0 0 0 0 0 0 0 0 0 0 1 2 2 2 2 3 3 1 0 0 0 0 0
1 0 0 0 0 0 0 0 0 0 0 0 0 0 0 0 0 0 0 0 0 0 0 0 0 0 0 0 0 0 0 0 0 0 0 0 2 3 3 2 2 2 2 1 0 0 0 0 0
1 0 0 0 0 0 0 0 0 0 0 0 0 0 0 0 0 0 0 0 0 0 0 0 0 0 0 0 0 0 0 0 0 0 0 0 1 2 2 1 1 1 1 0 0 0 0 0 0
0 0 0 0 0 0 0 0 0 0 0 0 0 0 0 0 0 0 0 0 0 0 0 0 0 0 0 0 0 0 0 0 0 0 0 0 0 1 1 0 0 0 0 0 0 0 0 0 0
0 0 0 0 0 0 0 0 0 0 0 0 0 0 0 0 0 0 0 0 0 0 0 0 0 0 0 0 1 1 0 0 0 0 0 0 0 0 0 0 0 0 0 0 0 0 0 0 0
0 0 0 0 0 0 0 0 0 0 0 0 0 0 0 0 0 0 0 0 0 0 0 0 0 0 0 0 2 2 1 0 0 0 1 1 1 0 0 0 0 0 0 0 0 0 0 0 0
0 0 0 0 0 0 0 0 0 0 0 0 0 0 0 0 0 0 0 0 0 0 0 0 0 0 0 0 1 2 1 0 0 0 1 2 1 0 0 0 0 0 0 0 0 0 0 0 0
0 0 0 0 0 0 0 0 0 0 0 0 0 0 0 0 0 1 2 1 1 1 0 0 0 0 0 0 0 0 0 0 0 0 0 1 1 0 0 0 0 0 0 0 0 0 0 0 0
0 0 0 0 0 0 0 0 0 0 0 0 0 0 0 0 1 2 3 4 7 7 4 2 1 0 0 0 0 0 0 0 0 0 0 0 0 0 0 0 0 0 0 0 0 0 0 0 0
0 0 0 0 0 0 0 0 0 0 0 0 0 0 0 0 1 2 3 6 14 20 16 9 6 3 0 0 0 0 0 0 0 0 0 0 0 0 0 0 0 0 0 0 0 0 0 0 0
0 0 0 0 0 0 0 0 0 0 0 0 0 0 0 0 0 1 1 4 14 27 28 21 16 8 1 0 0 0 0 0 0 0 0 0 0 0 0 0 0 0 0 0 0 0 0 0 0
0 0 0 0 0 0 0 0 0 0 0 0 0 0 0 0 0 0 0 1 8 21 26 27 26 14 2 0 0 0 0 0 0 0 0 0 0 0 0 0 0 0 0 0 0 0 0 0 0
0 0 0 0 0 0 0 0 0 0 0 0 0 0 0 0 0 0 0 0 4 10 13 21 25 14 2 0 0 0 0 0 0 0 0 0 0 0 0 0 0 0 0 0 0 0 0 0 0
0 0 0 0 0 0 0 0 0 0 0 0 0 0 0 0 0 0 0 0 3 7 8 12 16 9 1 0 0 0 0 0 0 0 0 0 0 0 0 0 0 0 0 0 0 0 0 0 0
0 0 0 0 0 0 0 0 0 0 0 0 0 0 0 0 0 0 0 1 6 14 15 12 8 3 0 0 0 0 0 0 0 0 0 0 0 0 0 0 0 0 0 0 0 0 0 0 0
0 0 0 0 0 0 0 0 0 0 0 0 0 0 0 0 0 0 0 1 7 16 20 13 4 0 0 0 0 0 0 0 0 0 0 0 0 0 0 0 0 0 0 0 0 0 0 0 0
0 0 0 0 0 0 0 0 0 0 0 0 0 0 0 0 0 0 0 1 4 10 12 8 2 0 0 0 0 0 0 0 0 0 0 0 0 0 0 0 0 0 0 0 0 0 0 0 0
0 0 0 0 0 0 0 0 0 0 0 0 0 0 0 0 0 0 0 0 1 3 3 2 1 0 0 0 0 0 0 0 0 0 0 0 0 0 0 0 0 0 0 0 0 0 0 0 0
0 0 0 0 0 0 0 0 0 0 0 0 0 0 0 0 0 0 0 0 0 0 0 0 0 0 0 0 0 0 0 0 0 0 0 0 0 0 0 0 0 0 0 0 0 0 0 0 0
0 0 0 0 0 0 0 0 0 0 0 0 0 0 0 0 0 0 0 0 0 0 0 0 0 0 0 0 0 0 0 0 0 0 0 0 0 0 0 0 0 0 0 0 0 0 0 0 0
0 0 0 0 0 0 0 0 0 0 0 0 0 0 0 0 0 0 0 0 0 0 0 0 0 0 0 0 0 0 0 0 0 0 0 0 0 0 0 0 0 0 0 0 0 0 0 0 0
0 0 0 0 0 0 0 0 0 0 0 0 0 0 0 0 0 0 0 0 0 0 0 0 0 0 0 0 0 0 0 0 0 0 0 0 0 0 0 0 0 0 0 0 0 0 0 0 0
0 0 0 0 0 0 0 0 0 0 0 0 0 0 0 0 0 0 0 0 0 0 0 0 0 0 0 0 0 0 0 0 0 0 0 0 0 0 0 0 0 0 0 0 0 0 0 0 0
0 0 0 0 0 0 0 0 0 0 0 0 0 0 0 0 0 0 0 0 0 0 0 0 0 0 0 0 0 0 0 0 0 0 0 0 0 0 0 0 0 0 0 0 0 0 0 0 0
0 0 0 0 0 0 0 0 0 0 0 0 0 0 0 0 0 0 0 0 0 0 0 0 0 0 0 0 0 0 0 0 0 0 0 0 0 0 0 0 0 0 0 0 0 0 0 0 0
0 0 0 0 0 0 0 0 0 0 0 0 0 0 0 0 0 0 0 0 0 0 0 0 0 0 0 0 0 0 0 0 0 0 0 0 0 0 0 0 0 0 0 0 0 0 0 0 0
0 0 0 0 0 0 0 0 0 0 0 0 0 0 0 0 0 0 0 0 0 0 0 0 0 0 0 0 0 0 0 0 0 0 0 0 0 0 0 0 0 0 0 0 0 0 0 0 0
0 0 0 0 0 0 0 0 0 0 0 0 0 0 0 0 0 1 1 1 0 0 0 0 0 0 0 0 0 0 0 0 0 0 0 0 0 0 0 0 0 0 0 0 0 0 0 0 0
0 0 0 0 0 0 0 0 0 0 0 0 0 0 0 0 0 1 2 1 0 0 0 0 0 0 0 0 0 0 0 0 0 0 0 0 0 0 0 0 0 0 0 0 0 0 0 0 0
Wind_Speed
5 4 1 2 6 6 1 2 5 2 1 2 6 10 8 4 2 2 1 7 10 10 8 10 12 11 11 10 10 10 11 11 12 12 12 12 12 11 11 12 12 13 13 12 11 11 11 11 11
2 2 2 3 6 3 2 3 4 4 5 7 7 7 6 4 4 6 4 9 12 10 7 8 12 11 11 10 11 11 11 12 13 13 12 12 12 11 11 12 13 13 12 11 10 10 10 10 10
2 1 3 3 3 5 3 2 4 2 6 6 4 5 6 5 6 6 6 12 11 9 7 9 13 12 11 11 11 12 12 13 14 13 12 11 12 12 11 12 13 13 12 10 9 8 9 10 9
1 4 4 4 2 5 3 1 1 2 4 4 5 5 4 4 5 7 11 12 11 9 7 9 13 13 12 12 12 13 13 14 14 13 12 12 12 12 11 11 12 12 11 9 8 7 8 9 9
3 4 5 3 1 2 1 3 5 4 3 4 5 5 3 3 10 13 12 12 12 9 7 8 13 13 13 13 13 14 14 14 14 13 12 11 12 12 11 11 12 11 9 8 7 7 7 9 10
4 4 4 1 2 2 1 1 6 7 6 6 6 5 4 7 13 12 12 10 10 10 8 8 13 14 14 14 15 15 14 14 14 14 13 12 12 12 11 11 10 9 8 7 6 6 7 8 10
4 3 2 1 2 1 1 2 4 4 4 7 10 7 5 9 12 12 10 8 8 8 7 6 7 9 13 15 15 15 15 14 14 14 14 13 12 13 12 11 9 8 7 6 4 5 5 7 10
5 5 1 3 2 1 1 2 3 5 3 8 10 10 8 12 11 10 9 8 9 8 7 6 6 6 6 8 14 15 15 15 14 14 14 13 12 12 11 10 9 8 7 5 3 2 3 7 10
5 5 2 3 5 2 2 3 3 1 1 3 6 7 8 15 12 10 7 6 9 9 7 7 7 7 7 7 11 12 13 14 13 12 14 11 5 5 6 8 9 8 7 4 2 1 5 8 10
4 3 4 3 5 2 2 3 4 3 3 3 5 5 11 16 16 14 12 12 12 11 10 9 8 8 7 8 7 5 5 7 6 5 6 5 4 4 6 9 11 9 6 4 1 2 5 6 4
2 4 4 1 2 2 2 2 3 2 0 5 9 10 13 13 16 17 16 15 14 14 13 12 11 10 8 5 5 4 3 4 5 6 6 4 4 3 3 3 4 3 3 1 1 3 4 4 3
1 4 3 3 2 2 1 1 2 2 3 8 15 17 16 15 17 17 18 15 13 16 16 14 13 11 8 6 6 5 4 4 4 5 6 4 3 3 3 2 2 2 1 1 2 2 4 2 4
3 4 3 5 4 3 1 1 2 4 4 7 13 14 15 15 13 12 14 14 14 17 17 16 15 13 9 7 6 6 6 6 6 5 5 6 4 4 4 3 3 3 2 2 3 2 2 3 5
3 4 4 4 5 2 2 2 2 5 4 7 12 10 10 10 9 6 8 11 13 14 14 13 15 13 10 8 7 7 6 5 5 6 7 7 5 5 5 4 3 3 3 2 3 2 1 1 4
4 4 6 5 5 3 2 2 3 6 3 5 8 7 8 7 6 5 9 11 11 10 8 10 13 12 11 10 9 8 8 7 7 8 8 7 6 6 5 4 4 4 3 3 3 2 1 2 3
2 2 4 7 4 6 6 5 7 5 2 4 4 5 8 6 5 1 5 9 12 14 13 12 12 12 13 10 8 7 7 7 7 7 7 7 8 7 6 5 4 4 4 4 4 2 2 2 3
4 2 4 6 1 4 6 6 8 6 3 5 5 6 8 7 5 3 4 7 9 12 13 12 10 11 11 9 6 7 6 6 6 6 6 6 8 9 7 6 5 5 4 4 4 2 2 3 4
3 3 4 5 4 3 5 8 9 8 5 4 4 6 7 8 5 2 2 4 7 7 8 9 7 6 6 5 4 4 4 4 4 4 5 7 8 10 7 6 6 6 5 4 4 4 2 3 4
4 5 6 7 9 4 7 10 11 10 4 3 6 7 7 7 5 4 4 5 6 6 6 6 6 5 5 4 4 4 4 3 2 3 5 6 8 8 6 7 6 6 6 6 7 4 4 2 2
9 8 7 8 9 6 5 6 6 5 6 8 13 11 9 7 5 4 4 3 4 5 5 5 5 4 4 3 2 2 2 1 2 2 4 6 7 8 7 8 7 6 6 7 6 5 3 2 3
8 7 7 7 6 6 3 6 6 5 1 6 10 10 9 11 9 7 5 3 4 5 6 7 7 6 5 3 1 1 2 2 2 1 2 4 7 8 8 8 7 7 6 7 7 6 6 4 2
8 8 7 6 2 4 1 5 9 5 3 5 6 7 7 8 8 8 8 6 5 4 5 6 7 6 5 4 3 2 2 2 2 1 1 2 6 7 8 7 7 7 6 8 9 8 4 6 4
9 7 5 3 2 3 3 2 9 1 5 6 6 7 7 7 8 8 9 9 7 6 5 5 6 6 5 6 5 4 3 2 3 3 3 4 3 3 4 5 5 5 4 5 5 6 5 4 5
4 1 5 4 4 4 6 5 8 4 7 6 4 5 7 7 6 6 7 8 7 6 6 5 5 5 6 6 6 6 7 7 7 6 5 3 3 2 1 2 3 4 3 4 4 5 6 6 5
3 6 3 4 2 7 5 4 8 5 5 7 8 7 7 8 7 7 8 8 8 9 8 6 6 6 5 5 5 6 7 8 9 8 5 4 3 2 1 0 2 2 4 4 4 5 5 7 6
5 9 7 5 5 5 5 4 6 2 4 6 7 7 7 8 8 8 9 9 9 10 9 7 7 6 7 6 6 6 7 4 5 7 6 6 5 4 2 1 2 3 3 3 5 4 5 5 6
6 6 8 5 2 3 5 3 5 4 2 4 6 7 8 8 8 9 9 9 9 9 9 8 8 6 7 7 6 6 6 6 7 7 6 5 6 6 6 5 4 5 5 5 5 4 5 5 5
6 7 6 5 3 4 4 3 5 7 8 7 7 8 9 8 7 7 8 9 9 9 8 7 7 7 6 6 6 6 6 6 7 7 6 5 4 4 4 5 6 7 7 7 6 5 6 6 6
3 2 3 4 4 5 4 7 7 10 11 10 11 10 10 9 9 8 8 8 8 7 7 7 6 5 5 6 6 7 7 7 7 7 7 6 6 7 7 7 7 7 6 6 5 6 7 7 6
3 3 5 4 5 4 4 9 7 7 8 8 10 9 8 9 9 8 8 7 7 8 7 7 5 5 5 5 5 6 6 7 7 7 7 8 7 7 7 6 6 6 5 5 6 6 7 7 8
Wind_Direction
274 291 72 41 51 51 117 211 185 188 113 65 87 93 93 91 133 168 202 158 152 155 165 164 157 152 151 151 149 145 140 134 133 134 128 120 119 121 119 115 112 108 100 94 92 90 80 71 64
319 321 77 49 78 85 267 232 190 187 135 122 103 101 93 90 106 118 123 142 147 154 159 160 153 152 155 155 150 144 136 132 132 132 127 122 122 120 118 118 115 109 104 102 93 89 84 74 62
276 5 72 59 111 165 195 231 208 208 148 130 94 70 98 129 127 146 157 142 147 156 160 161 153 155 156 155 150 142 137 135 133 134 131 127 121 117 118 118 119 112 107 103 94 85 80 75 62
24 45 57 65 182 213 163 118 116 117 85 70 101 73 77 133 142 142 144 144 146 150 155 157 153 155 153 151 147 143 140 138 139 139 135 130 124 120 116 118 123 118 111 105 96 86 77 72 63
72 68 58 40 288 268 91 111 84 73 86 97 103 92 75 80 126 137 146 148 146 147 149 152 155 155 152 150 146 144 142 142 143 139 132 130 126 122 119 118 122 121 116 107 95 84 79 75 64
59 62 75 10 311 304 355 59 73 76 107 120 107 112 135 138 142 154 156 153 149 147 145 148 154 153 151 148 147 145 145 148 146 139 135 133 131 128 125 123 125 126 116 102 93 87 86 80 64
99 83 114 271 262 30 79 109 102 114 141 153 137 125 148 164 167 164 157 142 139 141 141 138 146 150 152 150 149 147 149 153 151 145 140 137 135 131 131 133 138 140 128 115 111 105 92 69 60
114 95 75 273 213 257 277 132 168 160 175 138 143 148 175 185 174 157 145 142 146 147 149 144 141 142 145 150 152 151 154 157 156 151 147 142 138 135 139 143 151 153 143 133 125 96 60 46 48
93 90 211 225 177 218 317 29 320 230 139 123 158 168 172 160 158 149 144 153 159 158 157 159 154 150 149 151 161 159 160 162 161 158 157 146 132 134 143 157 164 164 158 148 141 20 19 28 36
88 133 229 240 178 161 44 44 353 13 58 77 88 96 134 152 162 167 170 176 175 170 171 170 165 161 162 165 156 159 159 157 151 157 157 147 146 157 161 176 172 168 164 160 145 14 4 19 32
142 198 244 231 153 105 38 3 8 29 134 174 160 156 154 165 173 181 184 184 183 177 178 177 171 168 172 167 157 158 158 155 155 164 165 157 151 161 157 163 169 164 153 92 28 3 349 358 37
190 257 249 216 188 153 208 265 331 250 242 183 173 169 174 181 185 187 188 188 180 177 184 178 174 172 174 167 167 166 167 166 170 178 175 160 157 158 157 162 162 153 141 125 62 17 349 27 99
210 274 246 212 193 198 218 232 275 277 280 152 172 178 187 192 194 193 187 185 178 179 185 178 174 175 172 168 175 175 179 183 180 182 186 171 163 159 164 178 175 174 164 142 106 55 25 109 109
238 264 273 231 225 226 205 279 278 278 303 149 168 187 206 208 204 193 183 182 178 177 181 172 172 175 174 174 180 181 182 185 185 190 191 178 167 165 167 177 180 180 171 154 120 124 109 87 94
247 286 294 267 231 211 152 315 239 265 293 161 169 176 183 185 178 188 200 186 168 150 156 167 172 169 173 179 185 186 183 182 190 196 192 177 166 176 164 158 177 182 166 139 117 119 112 99 90
317 334 297 284 222 190 162 235 251 256 225 217 190 133 113 110 98 135 178 163 159 153 156 170 179 176 177 180 187 188 184 184 191 193 191 178 168 174 154 151 177 176 145 134 129 123 135 106 97
350 305 280 300 245 164 168 224 258 261 235 235 204 149 125 100 72 59 124 147 159 161 158 167 174 184 182 172 182 191 185 191 194 189 183 173 162 170 158 157 167 158 140 146 149 132 138 126 115
251 268 280 292 287 188 209 239 261 272 249 229 172 136 121 109 102 92 89 129 145 149 154 160 162 172 164 151 163 180 190 204 199 201 193 169 160 172 163 144 151 150 147 156 150 130 131 131 131
250 252 263 270 278 280 248 241 249 255 252 175 145 147 131 119 108 86 71 99 121 136 144 154 157 162 153 150 157 170 198 207 202 217 205 170 163 171 154 135 145 154 159 158 144 126 143 120 111
253 258 265 279 287 291 264 255 258 271 245 186 164 164 154 137 127 109 91 102 132 150 159 159 167 167 166 160 152 149 165 185 197 208 193 169 161 157 147 143 149 152 142 134 134 136 141 142 152
245 231 242 258 307 344 315 310 308 312 5 151 162 167 160 156 153 148 141 138 145 156 164 172 180 183 178 170 128 80 74 50 79 116 186 163 147 147 148 150 144 146 147 151 155 164 158 159 184
256 243 243 260 294 293 335 291 288 254 213 191 186 173 170 161 154 156 153 156 168 172 161 158 175 192 195 185 187 171 154 168 157 148 221 129 132 144 155 156 152 152 156 167 176 172 164 153 169
239 247 249 264 253 303 307 268 285 173 203 212 204 187 176 170 171 170 165 165 169 166 167 170 176 192 195 196 197 166 148 139 121 105 83 86 97 118 151 158 153 157 158 178 187 171 170 167 171
218 55 15 42 69 303 249 197 275 241 207 188 198 193 182 186 197 187 166 158 164 169 172 174 180 194 191 189 178 162 158 149 136 117 104 105 111 89 94 177 168 158 154 173 193 189 192 193 191
107 88 18 344 18 252 260 204 247 248 185 172 183 191 190 192 192 186 173 171 170 174 178 175 174 184 187 186 182 172 172 167 152 140 136 139 126 100 52 157 198 181 181 182 178 192 206 200 198
180 148 170 201 212 268 307 243 257 253 178 175 174 177 184 188 189 189 186 181 176 177 178 174 174 178 181 186 190 183 179 163 139 143 153 156 147 148 166 190 245 236 216 207 185 186 198 193 200
163 185 176 148 231 266 281 295 329 304 249 181 181 186 193 193 192 192 185 179 176 176 180 180 178 181 181 181 178 178 174 156 149 153 159 159 161 163 164 180 219 231 222 216 193 196 198 189 196
152 150 107 133 183 237 270 233 228 233 238 232 215 211 212 205 196 190 180 178 179 180 183 185 186 190 186 177 177 180 180 168 160 160 163 164 169 177 185 200 216 219 215 209 199 198 203 203 211
156 154 139 149 170 174 232 262 226 206 214 219 223 219 215 206 198 190 184 178 170 169 174 180 185 187 193 188 180 180 184 176 167 170 175 177 185 193 208 215 223 225 225 225 217 211 201 205 215
140 178 151 176 239 190 188 263 259 229 236 226 226 226 216 201 194 184 177 170 164 165 167 166 164 170 190 193 183 179 175 173 177 184 189 189 189 194 205 209 214 221 224 224 216 214 204 205 212